Flag for United Kingdom Weather past 2 weeks in Norwich, England, United Kingdom

Now
50 °F

Scattered clouds.


Feels Like: 46 °F
Forecast: 37 / 50 °F
Wind: 9 mph from Northeast

Location: Norwich Weather Centre

Current Time: Apr 26, 2015 at 1:36:27 PM

Latest Report: Apr 26, 2015 at 12:50 PM


Visibility: N/A

Pressure: 29.80 "Hg

Humidity: 62%

Dew point: 37 °F

Location of NorwichLocation

Historic Weather in Norwich — Graph

°F

Norwich temperature yesterday

Maximum temperature yesterday: 64 °F (at 3:20 PM)
Minimum temperature yesterday: 45 °F (at 11:50 PM)
Average temperature yesterday: 55 °F

Past Weeks' High & Low Weather Summary

 TemperatureHumidityPressure
High70 °F (Apr 15, 12:50 PM)100% (Apr 12, 11:50 PM)30.60 "Hg (Apr 12, 11:50 PM)
Low34 °F (Apr 13, 5:20 AM)35% (Apr 11, 4:20 PM)29.62 "Hg (Apr 25, 12:50 PM)
Average50 °F75%30.18 "Hg
* Reported Apr 11 12:20 PM — Apr 26 12:20 PM, Norwich, Weather by CustomWeather, © 2015

Note: Actual official high and low records may vary slightly from our data, if they occured in-between our weather recording intervals... More about our weather records

Advertising

Norwich weather history for previous 24 hours

 ConditionsComfort  
Time TempWeatherWind HumidityBarometerVisibility
12:20 PM
Sun, Apr 26
50 °FScattered clouds.7 mph62%29.80 "HgN/A
11:50 AM48 °FBroken clouds.7 mph66%29.80 "HgN/A
11:20 AM48 °FScattered clouds.6 mph66%29.77 "HgN/A
10:50 AM50 °FScattered clouds.8 mph71%29.77 "HgN/A
10:20 AM48 °FBroken clouds.8 mph71%29.77 "HgN/A
9:50 AM48 °FBroken clouds.8 mph71%29.77 "HgN/A
9:20 AM48 °FScattered clouds.9 mph71%29.77 "HgN/A
8:50 AM46 °FBroken clouds.9 mph82%29.77 "HgN/A
8:20 AM46 °FBroken clouds.8 mph87%29.77 "HgN/A
7:50 AM45 °FPassing clouds.3 mph93%29.77 "HgN/A
7:20 AM45 °FPassing clouds.3 mph93%29.77 "HgN/A
6:50 AM45 °FPassing clouds.3 mph87%29.74 "HgN/A
6:20 AM45 °FPassing clouds.3 mph87%29.74 "HgN/A
5:50 AM43 °FPassing clouds.5 mph93%29.74 "HgN/A
5:20 AM43 °FLight rain. Passing clouds.5 mph100%29.74 "HgN/A
4:50 AM45 °FRain. Passing clouds.5 mph93%29.74 "HgN/A
4:20 AM43 °FRain. Mostly cloudy.5 mph93%29.74 "HgN/A
3:50 AM43 °FRain. Mostly cloudy.7 mph93%29.74 "HgN/A
3:20 AM45 °FRain. Partly cloudy.3 mph93%29.74 "HgN/A
2:50 AM45 °FLight rain. Partly cloudy.5 mph93%29.74 "HgN/A
2:20 AM45 °FLight rain. Mostly cloudy.3 mph93%29.74 "HgN/A
1:50 AM45 °FRain. Mostly cloudy.3 mph93%29.71 "Hg6 mi
1:20 AM45 °FRain. Passing clouds.5 mph93%29.71 "Hg6 mi
12:50 AM45 °FLight rain. Passing clouds.5 mph93%29.71 "HgN/A
12:20 AM45 °FRain. Mostly cloudy.7 mph93%29.74 "HgN/A
11:50 PM
Sat, Apr 25
45 °FRain. Low clouds.7 mph93%29.74 "HgN/A
11:20 PM46 °FRain. Low clouds.10 mph87%29.74 "HgN/A
10:20 PM46 °FLow clouds.10 mph87%29.71 "HgN/A
9:50 PM46 °FLow clouds.13 mph87%29.71 "HgN/A
9:20 PM48 °FPassing clouds.12 mph87%29.71 "HgN/A
8:50 PM48 °FBroken clouds.10 mph87%29.68 "HgN/A
8:20 PM50 °FScattered clouds.10 mph88%29.68 "HgN/A
7:50 PM54 °FScattered clouds.7 mph77%29.68 "HgN/A
7:20 PM55 °FScattered clouds.8 mph72%29.65 "HgN/A
6:50 PM59 °FPassing clouds.15 mph59%29.62 "HgN/A
6:20 PM63 °FPassing clouds.16 mph49%29.62 "HgN/A
5:50 PM63 °FPassing clouds.17 mph49%29.62 "HgN/A
5:20 PM64 °FScattered clouds.16 mph46%29.62 "HgN/A
4:50 PM64 °FScattered clouds.17 mph46%29.62 "HgN/A
4:20 PM64 °FPassing clouds.17 mph49%29.62 "HgN/A
3:50 PM64 °FPassing clouds.18 mph46%29.62 "HgN/A
3:20 PM64 °FPassing clouds.20 mph49%29.62 "HgN/A
2:50 PM63 °FPassing clouds.15 mph56%29.62 "HgN/A
2:20 PM63 °FScattered clouds.15 mph52%29.62 "HgN/A
1:50 PM61 °FScattered showers. Scattered clouds.16 mph59%29.62 "HgN/A
Weather by CustomWeather, © 2015

See weather overviewHow to use our weather pages